GFSNIL_con_lsi_123.txt.gz
Lid_Strength_Index
7 4 4 4 3 2 2 1 0 0 0 0 0 0 0 1 1 0 1 1 1 1
8 7 5 4 2 4 4 2 1 0 1 1 0 1 1 1 1 1 1 1 1 1
10 9 8 7 6 7 6 5 5 1 1 1 1 1 1 1 1 1 1 1 1 1
11 10 10 9 9 8 7 7 7 3 1 1 1 1 1 2 1 1 2 1 1 1
12 12 12 11 10 9 8 8 9 8 9 4 1 1 2 2 2 2 2 2 2 2
12 13 12 12 12 10 11 10 10 11 12 12 11 12 11 9 3 1 2 1 2 2
13 13 12 12 12 12 12 13 12 11 12 13 14 14 13 11 10 7 3 1 1 1
11 12 12 12 13 13 13 13 13 13 14 14 14 13 13 12 9 7 7 6 2 1
12 12 12 13 13 13 14 14 14 13 13 14 14 14 14 13 12 12 12 12 11 9
13 12 12 11 12 13 14 14 14 14 14 15 15 14 14 13 13 14 15 15 14 13
13 13 13 13 12 12 13 13 13 14 14 15 15 15 14 14 14 15 15 16 16 15
14 14 14 14 13 13 13 13 14 14 14 14 14 14 15 13 14 15 16 16 15 15
13 13 13 12 12 12 11 12 12 12 14 14 14 14 14 14 14 15 15 15 16 16
11 12 12 12 11 11 11 11 12 12 12 12 12 13 13 14 14 15 14 15 16 16

GFSNIL_con_lsi_126.txt.gz
Lid_Strength_Index
4 3 4 6 4 2 2 2 1 1 1 1 1 1 1 1 1 1 1 2 1 2
7 6 7 7 5 5 6 5 5 2 1 1 1 1 1 1 1 1 1 1 1 1
10 9 8 8 9 7 8 6 7 6 3 1 1 1 1 1 1 1 1 1 1 1
12 11 11 11 10 10 9 9 9 9 9 9 6 4 2 1 1 2 2 1 2 2
13 12 12 13 12 12 11 11 12 11 11 11 12 11 10 9 4 2 2 2 2 2
14 13 14 13 13 13 13 13 13 12 12 13 13 13 12 11 10 7 6 2 2 2
13 14 13 14 14 14 13 14 13 13 13 14 13 13 13 10 10 9 9 8 8 7
14 13 14 14 14 14 14 14 14 14 14 14 15 14 13 12 13 13 13 12 12 11
13 13 13 14 14 14 14 15 14 15 15 15 15 14 14 13 13 13 14 14 14 12
13 13 13 13 13 14 15 15 15 15 15 16 15 15 14 14 14 15 15 15 15 15
14 14 13 13 13 13 13 14 14 14 14 15 15 14 14 13 14 15 15 16 16 16
14 14 14 14 14 13 14 13 14 14 15 15 15 14 14 14 14 15 15 15 15 15
13 13 14 13 13 13 13 13 12 13 13 13 14 14 14 15 15 15 15 15 15 15
12 13 13 13 13 14 13 13 14 13 13 14 14 14 14 13 14 14 14 15 15 15

GFSNIL_con_lsi_129.txt.gz
Lid_Strength_Index
4 3 2 2 2 2 5 6 1 1 1 1 1 1 1 1 1 1 1 1 1 2
5 4 2 3 4 3 6 5 5 1 1 1 1 1 1 1 1 1 1 1 1 1
6 7 7 7 8 6 6 6 7 9 6 3 2 1 1 1 1 1 1 1 1 1
9 9 9 10 11 10 9 10 11 11 11 11 10 9 7 5 3 2 2 1 2 2
10 11 12 13 12 12 12 12 12 12 13 13 12 11 10 9 8 7 7 4 2 2
12 13 13 14 14 14 13 14 14 15 14 14 14 12 10 10 10 10 10 10 9 10
14 13 14 14 14 16 15 16 16 16 15 15 15 14 12 12 12 13 13 12 11 12
13 13 13 14 14 14 14 15 16 16 16 16 15 15 15 14 14 15 15 14 13 13
13 13 14 14 15 15 15 15 15 16 16 16 16 14 15 14 15 16 16 16 15 14
13 14 14 14 14 15 15 15 16 16 17 16 16 15 14 14 15 16 16 16 16 15
14 15 14 14 14 14 14 15 16 17 17 17 16 15 15 15 15 16 16 16 16 16
15 16 16 16 15 15 14 14 15 16 16 17 16 14 14 14 15 15 15 15 15 15
13 14 16 16 15 14 15 15 15 14 16 15 16 14 14 14 15 15 15 15 15 14
14 14 15 16 16 16 15 16 16 16 16 17 16 16 14 14 15 15 14 14 14 14

GFSNIL_con_lsi_132.txt.gz
Lid_Strength_Index
8 7 6 4 3 3 2 2 2 4 6 1 1 1 1 2 1 2 2 2 2 2
9 8 7 5 3 2 2 2 4 4 6 4 1 1 1 1 2 2 1 1 1 2
9 9 8 7 6 6 4 5 7 6 7 9 2 1 1 1 1 1 1 1 2 2
10 9 8 8 9 9 9 8 9 10 10 10 9 6 3 3 2 2 2 1 2 2
12 12 10 10 10 10 12 11 10 11 12 12 11 11 10 9 8 8 8 8 8 9
13 14 12 12 12 12 12 13 13 13 13 14 13 12 12 12 10 11 11 12 12 12
14 15 14 13 13 14 14 15 15 15 15 16 15 15 15 15 15 14 14 13 14 14
14 14 14 14 15 15 15 15 15 15 15 16 16 17 16 16 16 16 15 15 14 15
14 14 15 15 15 15 15 16 16 16 16 16 15 16 16 17 17 17 17 17 17 16
15 15 15 15 14 16 17 17 17 18 17 17 16 16 16 16 17 17 17 17 17 17
17 16 16 16 16 16 16 18 19 18 18 18 17 16 16 15 16 16 16 16 16 16
15 16 17 18 18 17 18 18 20 19 19 19 17 15 15 16 15 15 16 15 15 16
15 16 17 17 17 17 17 18 18 19 20 18 18 15 15 16 16 16 16 15 15 14
14 15 16 16 17 18 18 19 19 19 19 19 17 16 13 14 16 16 15 15 15 14

GFSNIL_con_lsi_135.txt.gz
Lid_Strength_Index
11 11 10 9 7 5 4 3 2 1 3 1 1 2 2 2 1 1 2 2 2 2
12 11 10 9 8 6 3 2 1 3 4 3 1 3 3 2 3 1 1 2 2 2
12 11 10 9 10 8 6 4 4 6 7 7 4 3 3 2 2 2 2 2 2 2
13 12 11 9 11 10 8 8 7 7 8 8 8 8 2 2 2 2 2 2 2 2
14 13 13 11 12 11 10 9 9 9 10 10 11 12 12 10 9 9 10 9 7 9
14 14 14 14 12 12 12 12 12 12 12 12 12 12 13 14 13 13 12 13 13 13
15 14 14 14 14 14 14 13 13 13 13 13 13 13 13 14 15 15 14 15 16 15
15 15 14 14 16 16 16 15 15 15 14 14 15 15 14 15 15 16 16 16 16 17
17 16 17 16 17 18 18 18 16 16 16 15 15 14 15 16 16 16 17 17 17 16
17 18 18 18 18 19 19 19 19 18 16 16 16 14 14 15 17 16 17 18 17 17
16 17 18 18 19 19 20 20 19 19 18 17 16 16 15 15 16 16 16 16 17 17
15 16 16 17 18 18 18 19 19 19 19 18 17 16 17 17 17 17 17 16 16 17
15 16 16 16 17 17 17 18 18 18 18 17 17 15 15 16 16 17 17 17 16 15
15 15 16 17 16 17 18 18 18 18 18 18 16 15 14 14 16 16 16 16 16 16

GFSNIL_con_lsi_138.txt.gz
Lid_Strength_Index
12 12 12 11 11 10 8 7 5 4 3 2 1 1 1 1 1 1 3 2 2 2
12 13 13 12 12 11 9 8 6 3 2 2 3 2 2 1 2 1 1 2 2 2
13 13 13 13 12 11 10 8 6 6 5 5 4 4 1 2 1 2 2 2 2 2
14 13 14 14 13 11 10 10 9 8 7 7 8 7 3 2 2 2 3 8 6 2
15 14 15 15 14 13 12 12 11 11 9 9 9 9 8 8 9 10 10 10 10 12
16 16 16 16 15 15 15 13 13 12 11 10 9 10 10 11 11 12 12 13 14 14
17 17 17 17 17 16 15 15 14 14 14 14 13 12 12 12 13 13 13 13 14 15
17 17 17 17 18 17 17 17 15 15 14 13 14 14 15 15 14 15 15 15 15 14
17 18 18 18 18 18 18 18 17 16 16 16 15 14 14 16 16 17 16 16 16 16
17 18 18 18 19 19 19 19 18 18 16 16 15 14 14 15 16 18 18 18 17 17
16 17 17 18 17 17 17 18 19 18 17 17 15 14 15 15 16 18 17 17 18 18
16 16 17 17 17 17 18 18 18 18 17 17 16 15 15 16 17 17 18 17 17 18
15 16 17 17 17 17 17 17 17 18 17 15 17 14 15 15 17 18 19 19 19 17
14 15 16 17 16 17 18 18 18 18 17 18 17 16 14 15 18 18 18 18 19 17

GFSNIL_con_lsi_141.txt.gz
Lid_Strength_Index
12 12 13 13 13 12 12 11 9 8 7 5 3 1 0 1 1 1 1 2 2 2
12 13 13 14 13 13 12 11 9 8 7 4 3 2 1 1 1 1 1 1 1 2
13 13 14 14 13 13 12 11 10 9 8 7 6 5 2 1 1 1 1 1 1 1
14 14 14 15 14 14 12 12 11 9 10 9 8 8 4 1 1 1 1 2 1 2
15 15 15 16 15 14 13 12 12 11 11 11 10 10 9 9 8 8 8 8 8 7
16 16 17 16 16 15 14 13 13 12 12 13 12 12 11 11 11 11 10 10 10 11
16 16 17 17 17 16 15 15 14 14 14 13 13 13 13 13 12 12 12 12 12 12
15 16 17 17 16 16 16 16 15 15 15 15 15 14 15 15 15 16 15 14 14 13
15 15 15 17 17 16 16 17 16 15 15 15 16 14 15 15 16 17 17 18 17 16
15 15 15 15 16 16 18 17 17 16 16 16 16 14 15 16 17 18 17 18 18 17
15 16 16 15 15 15 15 16 18 18 16 16 16 16 16 16 17 18 18 18 18 18
15 15 15 16 16 15 15 15 16 17 17 17 16 16 17 17 18 18 19 19 18 18
14 15 15 15 15 15 15 15 14 15 16 16 16 15 16 17 16 18 18 18 18 17
13 14 14 14 14 15 15 15 15 15 16 16 16 17 16 16 18 18 18 17 18 17

GFSNIL_con_lsi_144.txt.gz
Lid_Strength_Index
11 12 12 12 12 12 12 12 11 10 9 7 6 5 4 3 2 1 1 2 1 2
11 12 12 12 12 12 12 12 11 10 9 8 7 5 3 3 2 1 1 1 1 1
11 11 12 13 13 13 12 12 12 11 10 9 7 7 5 3 1 1 1 1 1 1
12 12 12 13 13 13 13 12 13 12 11 11 10 8 8 8 7 7 8 6 6 2
12 13 13 14 13 13 14 13 12 13 12 12 12 11 11 11 11 11 11 11 10 10
13 14 14 14 14 14 14 14 13 12 13 13 12 12 13 13 13 14 13 13 12 13
13 13 14 14 14 14 14 14 14 14 14 13 14 14 14 14 14 14 14 13 13 13
11 12 13 14 14 14 14 14 14 15 15 14 14 14 14 14 15 15 14 14 14 14
12 12 12 13 12 15 15 15 15 15 16 16 16 15 15 15 14 16 16 16 17 15
12 12 12 12 12 12 13 15 15 15 14 16 16 16 16 16 15 16 16 17 17 17
12 12 12 12 13 12 12 13 15 16 16 16 16 17 16 16 16 17 17 17 17 17
13 12 12 13 12 13 12 12 13 14 16 16 16 16 16 16 16 18 18 18 17 18
12 13 13 12 12 12 12 12 12 13 14 15 16 16 15 15 15 16 17 17 18 18
12 12 11 11 11 12 12 12 12 13 13 14 14 15 16 17 16 15 16 17 17 17

GFSNIL_con_lsi_147.txt.gz
Lid_Strength_Index
9 9 10 11 11 11 11 12 11 12 11 10 10 8 7 5 5 3 2 1 1 1
9 10 10 11 11 11 11 11 12 12 12 11 10 9 7 5 4 3 1 1 1 1
10 10 11 11 12 12 11 11 12 12 12 12 12 11 8 7 7 7 8 6 5 3
10 11 11 12 12 12 12 12 12 13 13 13 12 11 10 10 9 10 10 10 10 10
11 11 12 13 12 12 12 12 13 13 14 14 13 12 12 12 12 12 13 12 13 13
12 12 12 12 13 13 13 13 14 14 14 15 14 14 13 13 12 13 13 13 14 14
11 11 11 11 12 13 13 14 14 15 15 15 14 14 14 13 14 14 14 14 14 13
10 10 10 11 11 13 13 13 13 14 16 15 14 14 15 15 15 16 16 15 15 14
10 10 10 10 10 11 12 13 14 14 15 16 16 14 15 14 15 15 15 16 16 16
10 10 10 10 11 11 12 12 12 14 14 15 16 15 15 15 16 16 16 16 16 16
10 10 10 11 11 11 11 13 12 13 14 15 16 16 15 15 15 17 17 17 17 17
10 11 11 12 11 10 11 11 12 12 13 14 15 15 15 14 15 17 17 17 17 18
10 11 12 11 11 10 10 10 11 11 12 13 13 14 14 14 14 15 15 17 18 18
10 10 10 10 11 11 10 10 10 11 11 12 13 13 14 15 15 15 16 16 16 16

GFSNIL_con_lsi_150.txt.gz
Lid_Strength_Index
10 10 11 11 11 12 12 12 11 12 12 12 11 11 11 9 8 7 6 6 5 4
10 11 11 11 11 12 11 11 12 12 13 13 13 12 12 11 10 8 5 5 4 4
11 11 11 12 12 12 12 12 12 13 13 14 13 13 13 12 12 11 10 8 8 7
12 12 12 12 12 12 12 13 13 13 13 14 14 14 14 13 12 12 11 11 11 11
12 12 12 13 13 13 13 13 14 14 14 15 14 15 15 14 13 14 13 12 12 13
12 12 13 13 13 13 13 13 14 15 15 14 15 15 15 15 14 14 14 14 13 13
13 13 13 12 14 14 13 14 15 15 16 15 15 15 16 16 16 15 15 15 15 14
12 12 12 12 13 14 13 14 15 15 16 16 15 15 16 17 17 17 17 17 17 16
11 11 11 10 11 11 13 14 15 15 16 16 15 14 14 16 18 18 18 19 18 18
11 11 11 10 11 11 12 13 14 15 15 16 16 14 14 15 17 19 18 18 19 19
11 11 11 11 11 11 12 13 13 13 14 14 14 14 15 15 16 17 19 19 19 18
11 11 11 11 11 11 12 12 12 12 14 14 14 13 14 15 16 17 17 18 17 18
11 11 11 11 11 11 12 11 11 12 13 13 14 12 13 14 15 17 17 17 17 16
10 11 11 11 11 11 12 12 12 11 12 13 14 14 13 13 15 16 16 17 17 17